Tracking 29892 objects as of 21-Nov-2024
HD Live streaming from Space Station
objects crossing your sky now

NOAA 12 DEB

Track NOAA 12 DEB now!
10-day predictions


NORAD ID: 38546
Int'l Code: 1991-032F
Perigee: 765.6 km
Apogee: 781.3 km
Inclination: 98.3 °
Period: 100.2 minutes
Semi major axis: 7144 km
RCS: 0.0029 m2 (small)
Launch date: May 14, 1991
Source: United States (US)
Launch site: AIR FORCE WESTERN TEST RANGE (AFWTR)

Note: This is SATELLITE DEBRIS
Your satellite tracking list
Your tracking list is empty




NASA's NSSDC Master Catalog

Two Line Element Set (TLE):
1 38546U 91032F   24325.95244991  .00002590  00000-0  87609-3 0  9999
2 38546  98.3471 321.5225 0011019 184.3310 205.2655 14.37631900676730
Source of the keplerian elements: AFSPC